Change the Weather History Date:

Thursday, March 1, 2012

  Actual Average Record
Temperature  
Mean Temperature 50 °F -  
Max Temperature 66 °F 58 °F 80 °F (2008)
Min Temperature 33 °F 35 °F 26 °F (2011)
Degree Days  
Heating Degree Days 16    
Moisture  
Dew Point 12 °F    
Average Humidity 24    
Maximum Humidity 44    
Minimum Humidity 10    
Precipitation  
Precipitation 0.00 in - - ()
Sea Level Pressure  
Sea Level Pressure 29.99 in    
Wind  
Wind Speed 11 mph (WSW)    
Max Wind Speed 43 mph    
Max Gust Speed 52 mph    
Visibility 9 miles    
Events      
Averages and records for this station are not official NWS values.
T = Trace of Precipitation, MM = Missing Value Source: NWS Daily Summary

Daily Weather History Graph

Daily Weather History Graph

Search for Another Location

Airport or City:

Trip Planner

Search our weather history database for the weather conditions in past years. The results will help you decide how hot, cold, wet, or windy it might be!

Date:

Astronomy

Mar. 01, 2012 Rise Set
Actual Time 6:34 AM MST 6:05 PM MST
Civil Twilight 6:09 AM MST 6:30 PM MST
Nautical Twilight 5:41 AM MST 6:58 PM MST
Astronomical Twilight 5:13 AM MST 7:27 PM MST
Moon 11:43 AM MST (3/1) 1:20 AM MST (3/1)
Length of Visible Light 12h 20m
Length of Day
11h 31m
First Quarter, 57% of the Moon is Illuminated
Mar 1
First Quarter
Mar 8
Full
Mar 14
Last Quarter
Mar 22
New
Mar 30
First Quarter

Hourly Weather History & Observations

Time (MST) Temp. Windchill Dew Point Humidity Pressure Visibility Wind Dir Wind Speed Gust Speed Precip Events Conditions
12:15 AM 44.6 °F 39.7 °F 10.4 °F 25% 30.08 in 10.0 mi WSW 9.2 mph - N/A   Clear
12:35 AM 44.6 °F 40.2 °F 10.4 °F 25% 30.07 in 10.0 mi West 8.1 mph - N/A   Clear
12:55 AM 41.0 °F 35.8 °F 10.4 °F 29% 30.07 in 10.0 mi West 8.1 mph - N/A   Clear
1:15 AM 41.0 °F 35.8 °F 10.4 °F 29% 30.07 in 10.0 mi West 8.1 mph - N/A   Clear
1:35 AM 41.0 °F 35.8 °F 10.4 °F 29% 30.05 in 10.0 mi West 8.1 mph - N/A   Clear
1:55 AM 39.2 °F 34.2 °F 10.4 °F 31% 30.05 in 10.0 mi West 6.9 mph - N/A   Clear
2:15 AM 37.4 °F 33.8 °F 10.4 °F 33% 30.04 in 10.0 mi West 4.6 mph - N/A   Clear
2:35 AM 35.6 °F 32.8 °F 10.4 °F 35% 30.04 in 10.0 mi NNW 3.5 mph - N/A   Clear
2:55 AM 35.6 °F - 10.4 °F 35% 30.03 in 10.0 mi Calm Calm - N/A   Clear
3:15 AM 35.6 °F - 10.4 °F 35% 30.03 in 10.0 mi Calm Calm - N/A   Clear
3:35 AM 35.6 °F - 12.2 °F 38% 30.03 in 10.0 mi Calm Calm - N/A   Clear
3:55 AM 35.6 °F 32.8 °F 10.4 °F 35% 30.03 in 10.0 mi NW 3.5 mph - N/A   Clear
4:15 AM 33.8 °F 28.6 °F 10.4 °F 38% 30.03 in 10.0 mi West 5.8 mph - N/A   Clear
4:35 AM 35.6 °F 30.7 °F 12.2 °F 38% 30.03 in 10.0 mi WSW 5.8 mph - N/A   Clear
4:55 AM 35.6 °F 32.8 °F 12.2 °F 38% 30.03 in 10.0 mi SSW 3.5 mph - N/A   Clear
5:15 AM 37.4 °F 34.9 °F 12.2 °F 36% 30.03 in 10.0 mi South 3.5 mph - N/A   Clear
5:35 AM 37.4 °F 32.8 °F 14.0 °F 38% 30.03 in 10.0 mi SSW 5.8 mph - N/A   Clear
5:55 AM 35.6 °F - 15.8 °F 44% 30.03 in 10.0 mi Calm Calm - N/A   Clear
6:15 AM 37.4 °F 34.9 °F 15.8 °F 41% 30.03 in 10.0 mi South 3.5 mph - N/A   Clear
6:35 AM 37.4 °F 33.8 °F 15.8 °F 41% 30.03 in 10.0 mi South 4.6 mph - N/A   Clear
6:55 AM 37.4 °F 33.8 °F 15.8 °F 41% 30.04 in 10.0 mi South 4.6 mph - N/A   Clear
7:15 AM 37.4 °F - 15.8 °F 41% 30.04 in 10.0 mi Calm Calm - N/A   Clear
7:35 AM 41.0 °F - 15.8 °F 36% 30.04 in 10.0 mi Calm Calm - N/A   Clear
7:55 AM 46.4 °F - 15.8 °F 29% 30.05 in 10.0 mi Calm Calm - N/A   Clear
8:15 AM 48.2 °F - 14.0 °F 25% 30.05 in 10.0 mi SW 3.5 mph - N/A   Clear
8:35 AM 48.2 °F - 15.8 °F 27% 30.05 in 10.0 mi SW 4.6 mph - N/A   Clear
8:55 AM 50.0 °F - 15.8 °F 26% 30.05 in 10.0 mi SW 5.8 mph - N/A   Clear
9:15 AM 51.8 °F - 15.8 °F 24% 30.05 in 10.0 mi SW 3.5 mph - N/A   Clear
9:35 AM 53.6 °F - 15.8 °F 22% 30.04 in 10.0 mi WSW 9.2 mph - N/A   Clear
9:55 AM 55.4 °F - 14.0 °F 20% 30.03 in 10.0 mi WSW 9.2 mph - N/A   Clear
10:15 AM 57.2 °F - 14.0 °F 18% 30.03 in 10.0 mi WSW 13.8 mph 18.4 mph N/A   Clear
10:35 AM 59.0 °F - 12.2 °F 16% 30.02 in 10.0 mi SW 10.4 mph - N/A   Clear
10:55 AM 60.8 °F - 10.4 °F 14% 30.01 in 10.0 mi SW 11.5 mph 24.2 mph N/A   Clear
11:15 AM 60.8 °F - 10.4 °F 14% 30.00 in 10.0 mi WSW 15.0 mph 23.0 mph N/A   Clear
11:35 AM 62.6 °F - 8.6 °F 12% 29.99 in 10.0 mi West 18.4 mph 28.8 mph N/A   Clear
11:55 AM 62.6 °F - 8.6 °F 12% 29.99 in 10.0 mi WSW 15.0 mph 20.7 mph N/A   Clear
12:15 PM 64.4 °F - 8.6 °F 11% 29.97 in 10.0 mi WSW 13.8 mph 24.2 mph N/A   Clear
12:35 PM 64.4 °F - 8.6 °F 11% 29.93 in 10.0 mi West 28.8 mph 34.5 mph N/A   Clear
12:55 PM 64.4 °F - 10.4 °F 12% 29.93 in 10.0 mi WSW 26.5 mph 36.8 mph N/A   Clear
1:15 PM 66.2 °F - 10.4 °F 11% 29.92 in 10.0 mi WSW 23.0 mph 35.7 mph N/A   Clear
1:35 PM 66.2 °F - 10.4 °F 11% 29.89 in 10.0 mi WSW 32.2 mph 41.4 mph N/A   Clear
1:55 PM 66.2 °F - 12.2 °F 12% 29.88 in 7.0 mi West 36.8 mph 47.2 mph N/A   Clear
2:15 PM 66.2 °F - 12.2 °F 12% 29.87 in 3.0 mi West 35.7 mph 50.6 mph N/A   Haze
2:35 PM 66.2 °F - 12.2 °F 12% 29.85 in 3.0 mi WSW 35.7 mph 49.5 mph N/A   Haze
2:55 PM 66.2 °F - 12.2 °F 12% 29.84 in 4.0 mi West 35.7 mph 49.5 mph N/A   Haze
3:15 PM 66.2 °F - 12.2 °F 12% 29.84 in 5.0 mi West 38.0 mph 46.0 mph N/A   Haze
3:35 PM 66.2 °F - 10.4 °F 11% 29.83 in 5.0 mi West 39.1 mph 46.0 mph N/A   Haze
3:55 PM 66.2 °F - 10.4 °F 11% 29.83 in 5.0 mi WSW 36.8 mph 49.5 mph N/A   Haze
4:15 PM 64.4 °F - 6.8 °F 10% 29.83 in 4.0 mi West 42.6 mph 51.8 mph N/A   Haze
4:35 PM 64.4 °F - 5.0 °F 10% 29.84 in 5.0 mi West 39.1 mph 47.2 mph N/A   Haze
4:55 PM 64.4 °F - 6.8 °F 10% 29.84 in 10.0 mi West 27.6 mph 41.4 mph N/A   Clear
5:15 PM 64.4 °F - 5.0 °F 10% 29.83 in 10.0 mi West 34.5 mph 41.4 mph N/A   Clear
5:35 PM 62.6 °F - 5.0 °F 10% 29.83 in 10.0 mi West 29.9 mph 38.0 mph N/A   Clear
5:55 PM 62.6 °F - 5.0 °F 10% 29.83 in 10.0 mi West 25.3 mph 33.4 mph N/A   Clear
6:15 PM 60.8 °F - 5.0 °F 11% 29.84 in 10.0 mi West 17.3 mph 27.6 mph N/A   Clear
6:35 PM 59.0 °F - 3.2 °F 11% 29.84 in 10.0 mi West 17.3 mph - N/A   Clear
6:55 PM 59.0 °F - 5.0 °F 12% 29.84 in 10.0 mi West 17.3 mph 27.6 mph N/A   Clear
7:15 PM 57.2 °F - 5.0 °F 12% 29.84 in 10.0 mi West 15.0 mph 23.0 mph N/A   Clear
7:35 PM 57.2 °F - 6.8 °F 13% 29.84 in 10.0 mi West 20.7 mph 27.6 mph N/A   Clear
7:55 PM 55.4 °F - 5.0 °F 13% 29.83 in 10.0 mi West 21.9 mph 27.6 mph N/A   Clear
8:15 PM 55.4 °F - 5.0 °F 13% 29.83 in 10.0 mi West 18.4 mph 26.5 mph N/A   Clear
8:35 PM 55.4 °F - 5.0 °F 13% 29.84 in 10.0 mi West 20.7 mph 25.3 mph N/A   Clear
8:55 PM 55.4 °F - 3.2 °F 12% 29.84 in 10.0 mi West 19.6 mph 27.6 mph N/A   Clear
9:15 PM 55.4 °F - 1.4 °F 11% 29.84 in 10.0 mi West 21.9 mph 29.9 mph N/A   Clear
9:35 PM 55.4 °F - 1.4 °F 11% 29.85 in 10.0 mi West 19.6 mph 27.6 mph N/A   Clear
9:55 PM 51.8 °F - 1.4 °F 13% 29.86 in 10.0 mi NW 4.6 mph - N/A   Clear
10:15 PM 51.8 °F - 3.2 °F 14% 29.86 in 10.0 mi WNW 5.8 mph - N/A   Clear
10:35 PM 51.8 °F - 3.2 °F 14% 29.87 in 10.0 mi NNW 3.5 mph - N/A   Clear
10:55 PM 50.0 °F - 3.2 °F 15% 29.86 in 10.0 mi Calm Calm - N/A   Clear
11:15 PM 46.4 °F 44.3 °F 3.2 °F 17% 29.86 in 10.0 mi SE 4.6 mph - N/A   Clear
11:35 PM 46.4 °F - 5.0 °F 18% 29.87 in 10.0 mi Calm Calm - N/A   Clear
11:55 PM 44.6 °F 42.2 °F 5.0 °F 20% 29.86 in 10.0 mi WSW 4.6 mph - N/A   Clear